Regional Weather Roundup
Issued by NWS

Home | Current Version | Previous Version | Text Only | Print | Product List | Glossary Off
Versions: 1 2 3 4 5 6 7 8 9 10 11 12 13 14 15 16 17 18 19 20 21 22 23 24 25 26 27

000
ASUS45 KCYS 020610
RWRWY

WYOMING REGIONAL WEATHER ROUNDUP
NATIONAL WEATHER SERVICE CHEYENNE WY
1100 PM MST THU DEC 01 2016

NOTE:  "FAIR" INDICATES FEW OR NO CLOUDS BELOW 12,000 FEET
WITH NO SIGNIFICANT WEATHER AND/OR OBSTRUCTIONS TO VISIBILITY.

WYZ001-020700-
YELLOWSTONE NATIONAL PARK

CITY           SKY/WX    TMP DP  RH WIND       PRES   REMARKS
LK YELLOWSTONE   N/A      6   4  91 W3        30.05R
6HR MIN TEMP:   4; 6HR MAX TEMP:  17;

W YELLOWSTONE  NOT AVBL

$$
WYZ002>013-054>058-071-098>099-020700-
NORTHERN WYOMING

CITY           SKY/WX    TMP DP  RH WIND       PRES   REMARKS
JACKSON        FAIR      12  10  92 E5        30.08R WCI   4
CODY           FAIR      23  18  81 SE3       30.06R
GREYBULL       CLOUDY    26  18  71 CALM      30.06R
6HR MIN TEMP:  24; 6HR MAX TEMP:  34;

WORLAND        CLOUDY    29  24  82 S3        30.06R
6HR MIN TEMP:  26; 6HR MAX TEMP:  34;

SHERIDAN       CLOUDY    33  23  66 W9        30.04R WCI  25
6HR MIN TEMP:  30; 6HR MAX TEMP:  35;

BUFFALO        CLOUDY    30  19  63 NW7       30.03R WCI  23
6HR MIN TEMP:  30; 6HR MAX TEMP:  37; 6HR PCP: TRACE;

GILLETTE       CLOUDY    30  25  81 W12       30.02R WCI  20
6HR MIN TEMP:  26; 6HR MAX TEMP:  32;

HULETT         FAIR      23  21  93 SW7       30.02R WCI  15
NEWCASTLE      FAIR      23  23 100 NW5       30.04R WCI  17

$$
WYZ014>020-022>026-101>103-020700-
CENTRAL WYOMING

CITY           SKY/WX    TMP DP  RH WIND       PRES   REMARKS
BIG PINEY      FAIR       8   4  83 N12       30.03R WCI  -7
6HR MIN TEMP:   5; 6HR MAX TEMP:  18;

PINEDALE       FAIR      12   7  79 NW13      30.03R WCI  -3
DUBOIS         FAIR      14   7  73 NW12      30.00R WCI   0
LANDER         FAIR      19  12  74 CALM      30.04R
6HR MIN TEMP:  18; 6HR MAX TEMP:  26;

RIVERTON       CLOUDY    22  16  78 NW6       30.04R WCI  14
6HR MIN TEMP:  19; 6HR MAX TEMP:  26;

CASPER         LGT SNOW  25  23  92 N3        30.03R FOG
6HR MIN TEMP:  25; 6HR MAX TEMP:  27; 6HR PCP:  0.01;

DOUGLAS        CLOUDY    27  25  92 W7        30.04R WCI  19
6HR MIN TEMP:  27; 6HR MAX TEMP:  31; 6HR PCP: TRACE;


$$
WYZ021-027>030-104>119-020700-
SOUTHERN WYOMING

CITY           SKY/WX    TMP DP  RH WIND       PRES   REMARKS
EVANSTON       FLURRIES  18  12  77 N3        30.05R
6HR MIN TEMP:  17; 6HR MAX TEMP:  21; 6HR PCP: TRACE;

FORT BRIDGER     N/A     15  15  96 W9        30.07R WCI   4
ROCK SPRINGS   CLOUDY    16  12  84 W9        30.03R WCI   4
6HR MIN TEMP:  16; 6HR MAX TEMP:  22;

DIXON          LGT SNOW  21  19  91 CALM      30.07R
RAWLINS        FAIR      12  10  92 CALM      30.01R
6HR MIN TEMP:  12; 6HR MAX TEMP:  24;

SARATOGA       CLOUDY    14  14 100 S7        30.01S WCI   4
LARAMIE        CLOUDY    18  13  80 SE7       29.97R WCI   9
6HR MIN TEMP:  17; 6HR MAX TEMP:  22;

CHEYENNE       CLOUDY    22  14  71 W6        30.02R WCI  14
6HR MIN TEMP:  21; 6HR MAX TEMP:  30;

TORRINGTON     MOCLDY    24  17  74 CALM      30.04R
6HR MIN TEMP:  22; 6HR MAX TEMP:  34;

PINE BLUFFS    MOCLDY    23  18  80 W6        30.04R WCI  16

$$




USA.gov is the U.S. government's official web portal to all federal, state and local government web resources and services.